contact: severine.martini@mio.osupytheas.fr, dominique.lefevre@mio.osupytheas.fr
Project:EMSO Ligure-ouest http://www.emso-fr.org/EMSO-France
Sensor Microcat Sea-Bird SBE37 SMP,  Serial 57510 
DOI : "https://doi.org/10.17882/97948" 
Title:EMSO Ligure Ouest : Data Bathybot capteur Microcat - deploiement 2023-04-28
Datetime,Profondeur,Latitude,Longitude,Temperature,Conductivite,Pression,Salinite
time,m,degree_north,degree_east,degree_C,S/m,db,PSU 
2023-10-24T00:00:50,2420,42.8014,5.9826,13.3035,4.59962,2453.740,38.4863
2023-10-24T00:03:49,2420,42.8014,5.9826,13.3011,4.59958,2453.695,38.4884
2023-10-24T00:06:49,2420,42.8014,5.9826,13.3008,4.59954,2453.695,38.4883
2023-10-24T00:09:49,2420,42.8014,5.9826,13.3027,4.59957,2453.702,38.4867
2023-10-24T00:12:49,2420,42.8014,5.9826,13.3021,4.60007,2453.717,38.4920
2023-10-24T00:15:49,2420,42.8014,5.9826,13.3201,4.60051,2453.740,38.4784
2023-10-24T00:18:49,2420,42.8014,5.9826,13.3101,4.59989,2453.732,38.4824
2023-10-24T00:21:49,2420,42.8014,5.9826,13.3279,4.59971,2453.740,38.4630
2023-10-24T00:24:49,2420,42.8014,5.9826,13.3064,4.59965,2453.672,38.4839
2023-10-24T00:27:49,2420,42.8014,5.9826,13.3286,4.59978,2453.695,38.4630
2023-10-24T00:30:49,2420,42.8014,5.9826,13.3286,4.59959,2453.740,38.4612
2023-10-24T00:33:49,2420,42.8014,5.9826,13.3365,4.59949,2453.717,38.4525
2023-10-24T00:36:49,2420,42.8014,5.9826,13.3340,4.59972,2453.717,38.4571
2023-10-24T00:39:49,2420,42.8014,5.9826,13.3059,4.59961,2453.717,38.4839
2023-10-24T00:42:49,2420,42.8014,5.9826,13.3049,4.59989,2453.717,38.4876
2023-10-24T00:45:49,2420,42.8014,5.9826,13.3150,4.59956,2453.754,38.4744
2023-10-24T00:48:49,2420,42.8014,5.9826,13.3027,4.59957,2453.732,38.4867
2023-10-24T00:51:49,2420,42.8014,5.9826,13.3111,4.59957,2453.754,38.4784
2023-10-24T00:54:49,2420,42.8014,5.9826,13.3025,4.59971,2453.754,38.4883
2023-10-24T00:57:49,2420,42.8014,5.9826,13.3055,4.59955,2453.695,38.4837
2023-10-24T01:00:49,2420,42.8014,5.9826,13.3001,4.59824,2453.762,38.4766
2023-10-24T01:03:49,2420,42.8014,5.9826,13.3016,4.59990,2453.709,38.4909
2023-10-24T01:06:49,2420,42.8014,5.9826,13.3058,4.59982,2453.762,38.4860
2023-10-24T01:09:49,2420,42.8014,5.9826,13.3056,4.59957,2453.762,38.4839
2023-10-24T01:12:49,2420,42.8014,5.9826,13.3070,4.59967,2453.740,38.4834
2023-10-24T01:15:49,2420,42.8014,5.9826,13.3041,4.60013,2453.740,38.4906
2023-10-24T01:18:49,2420,42.8014,5.9826,13.3634,4.59997,2453.762,38.4303
2023-10-24T01:21:49,2420,42.8014,5.9826,13.3521,4.60180,2453.740,38.4587
2023-10-24T01:24:49,2420,42.8014,5.9826,13.3618,4.60220,2453.732,38.4530
2023-10-24T01:27:49,2420,42.8014,5.9826,13.3356,4.60274,2453.695,38.4840
2023-10-24T01:30:49,2420,42.8014,5.9826,13.3716,4.60302,2453.732,38.4509
2023-10-24T01:33:49,2420,42.8014,5.9826,13.3469,4.60365,2453.695,38.4813
2023-10-24T01:36:49,2420,42.8014,5.9826,13.3385,4.60356,2453.717,38.4888
2023-10-24T01:39:49,2420,42.8014,5.9826,13.3746,4.60106,2453.732,38.4294
2023-10-24T01:42:49,2420,42.8014,5.9826,13.3587,4.60455,2453.732,38.4781
2023-10-24T01:45:49,2420,42.8014,5.9826,13.3577,4.60567,2453.740,38.4897
2023-10-24T01:48:49,2420,42.8014,5.9826,13.3520,4.60417,2453.754,38.4812
2023-10-24T01:51:49,2420,42.8014,5.9826,13.3560,4.60432,2453.777,38.4786
2023-10-24T01:54:49,2420,42.8014,5.9826,13.3446,4.60320,2453.754,38.4794
2023-10-24T01:57:49,2420,42.8014,5.9826,13.3182,4.60237,2453.777,38.4977
2023-10-24T02:00:49,2420,42.8014,5.9826,13.3712,4.60097,2453.732,38.4320
2023-10-24T02:03:49,2420,42.8014,5.9826,13.3224,4.60191,2453.740,38.4892
2023-10-24T02:06:49,2420,42.8014,5.9826,13.3807,4.60134,2453.740,38.4261
2023-10-24T02:09:49,2420,42.8014,5.9826,13.3511,4.60269,2453.754,38.4681
2023-10-24T02:12:49,2420,42.8014,5.9826,13.3477,4.60192,2453.754,38.4643
2023-10-24T02:15:49,2420,42.8014,5.9826,13.3246,4.60217,2453.717,38.4895
2023-10-24T02:18:49,2420,42.8014,5.9826,13.3155,4.60274,2453.732,38.5040
2023-10-24T02:21:49,2420,42.8014,5.9826,13.3098,4.60101,2453.762,38.4932
2023-10-24T02:24:49,2420,42.8014,5.9826,13.3187,4.60297,2453.732,38.5028
2023-10-24T02:27:49,2420,42.8014,5.9826,13.3184,4.60281,2453.740,38.5017
2023-10-24T02:30:49,2420,42.8014,5.9826,13.3123,4.60103,2453.777,38.4909
2023-10-24T02:33:49,2420,42.8014,5.9826,13.3099,4.60077,2453.762,38.4909
2023-10-24T02:36:49,2420,42.8014,5.9826,13.3127,4.60062,2453.740,38.4867
2023-10-24T02:39:49,2420,42.8014,5.9826,13.3049,4.60008,2453.740,38.4893
2023-10-24T02:42:49,2420,42.8014,5.9826,13.3039,4.60121,2453.762,38.5010
2023-10-24T02:45:49,2420,42.8014,5.9826,13.3023,4.60013,2453.762,38.4924
2023-10-24T02:48:49,2420,42.8014,5.9826,13.3014,4.60042,2453.762,38.4960
2023-10-24T02:51:49,2420,42.8014,5.9826,13.2985,4.60043,2453.762,38.4990
2023-10-24T02:54:49,2420,42.8014,5.9826,13.2993,4.60050,2453.740,38.4989
2023-10-24T02:57:49,2420,42.8014,5.9826,13.2982,4.60084,2453.740,38.5032
2023-10-24T03:00:49,2420,42.8014,5.9826,13.2995,4.60073,2453.740,38.5008
2023-10-24T03:03:49,2420,42.8014,5.9826,13.3001,4.60069,2453.762,38.4998
2023-10-24T03:06:49,2420,42.8014,5.9826,13.2984,4.60005,2453.762,38.4955
2023-10-24T03:09:49,2420,42.8014,5.9826,13.2986,4.59978,2453.762,38.4927
2023-10-24T03:12:49,2420,42.8014,5.9826,13.2982,4.59976,2453.754,38.4929
2023-10-24T03:15:49,2420,42.8014,5.9826,13.2985,4.59971,2453.748,38.4922
2023-10-24T03:18:49,2420,42.8014,5.9826,13.2982,4.59962,2453.762,38.4917
2023-10-24T03:21:49,2420,42.8014,5.9826,13.2976,4.60056,2453.762,38.5011
2023-10-24T03:24:49,2420,42.8014,5.9826,13.2979,4.60013,2453.762,38.4967
2023-10-24T03:27:49,2420,42.8014,5.9826,13.2977,4.59985,2453.740,38.4943
2023-10-24T03:30:49,2420,42.8014,5.9826,13.2980,4.60056,2453.762,38.5007
2023-10-24T03:33:49,2420,42.8014,5.9826,13.2984,4.60140,2453.762,38.5082
2023-10-24T03:36:49,2420,42.8014,5.9826,13.2978,4.59986,2453.762,38.4943
2023-10-24T03:39:49,2420,42.8014,5.9826,13.2985,4.59991,2453.740,38.4941
2023-10-24T03:42:49,2420,42.8014,5.9826,13.2979,4.59999,2453.740,38.4955
2023-10-24T03:45:49,2420,42.8014,5.9826,13.2982,4.60036,2453.762,38.4986
2023-10-24T03:48:49,2420,42.8014,5.9826,13.2983,4.60054,2453.762,38.5002
2023-10-24T03:51:49,2420,42.8014,5.9826,13.2984,4.60016,2453.702,38.4966
2023-10-24T03:54:50,2420,42.8014,5.9826,13.2979,4.60036,2453.762,38.4989
2023-10-24T03:57:49,2420,42.8014,5.9826,13.2981,4.60029,2453.740,38.4981
2023-10-24T04:00:49,2420,42.8014,5.9826,13.2981,4.60003,2453.717,38.4956
2023-10-24T04:03:49,2420,42.8014,5.9826,13.2979,4.60119,2453.762,38.5067
2023-10-24T04:06:49,2420,42.8014,5.9826,13.2984,4.60019,2453.762,38.4968
2023-10-24T04:09:49,2420,42.8014,5.9826,13.2981,4.59985,2453.725,38.4939
2023-10-24T04:12:49,2420,42.8014,5.9826,13.2978,4.59995,2453.717,38.4951
2023-10-24T04:15:49,2420,42.8014,5.9826,13.2980,4.60165,2453.748,38.5110
2023-10-24T04:18:49,2420,42.8014,5.9826,13.2982,4.60229,2453.740,38.5169
2023-10-24T04:21:49,2420,42.8014,5.9826,13.2982,4.60167,2453.754,38.5110
2023-10-24T04:24:49,2420,42.8014,5.9826,13.2992,4.60345,2453.762,38.5268
2023-10-24T04:27:49,2420,42.8014,5.9826,13.2985,4.60192,2453.762,38.5131
2023-10-24T04:30:49,2420,42.8014,5.9826,13.2979,4.60152,2453.754,38.5099
2023-10-24T04:33:49,2420,42.8014,5.9826,13.2979,4.60022,2453.785,38.4975
2023-10-24T04:36:49,2420,42.8014,5.9826,13.2982,4.60188,2453.762,38.5130
2023-10-24T04:39:49,2420,42.8014,5.9826,13.3008,4.60120,2453.748,38.5040
2023-10-24T04:42:49,2420,42.8014,5.9826,13.3020,4.60268,2453.762,38.5167
2023-10-24T04:45:49,2420,42.8014,5.9826,13.3002,4.60404,2453.740,38.5314
2023-10-24T04:48:49,2420,42.8014,5.9826,13.3086,4.60125,2453.762,38.4967
2023-10-24T04:51:49,2420,42.8014,5.9826,13.3005,4.60181,2453.762,38.5099
2023-10-24T04:54:49,2420,42.8014,5.9826,13.3033,4.60172,2453.762,38.5065
2023-10-24T04:57:49,2420,42.8014,5.9826,13.2986,4.60134,2453.717,38.5074
2023-10-24T05:00:49,2420,42.8014,5.9826,13.3002,4.60086,2453.717,38.5014
2023-10-24T05:03:49,2420,42.8014,5.9826,13.3004,4.60016,2453.762,38.4946
2023-10-24T05:06:49,2420,42.8014,5.9826,13.2982,4.60084,2453.717,38.5032
2023-10-24T05:09:49,2420,42.8014,5.9826,13.2984,4.60238,2453.762,38.5174
2023-10-24T05:12:49,2420,42.8014,5.9826,13.2984,4.60081,2453.740,38.5026
2023-10-24T05:15:49,2420,42.8014,5.9826,13.2992,4.60228,2453.740,38.5157
2023-10-24T05:18:49,2420,42.8014,5.9826,13.3013,4.60142,2453.740,38.5055
2023-10-24T05:21:49,2420,42.8014,5.9826,13.2998,4.60085,2453.740,38.5016
2023-10-24T05:24:49,2420,42.8014,5.9826,13.3168,4.60138,2453.740,38.4898
2023-10-24T05:27:50,2420,42.8014,5.9826,13.3017,4.60274,2453.717,38.5177
2023-10-24T05:30:49,2420,42.8014,5.9826,13.3441,4.60183,2453.740,38.4669
2023-10-24T05:33:49,2420,42.8014,5.9826,13.3970,4.60091,2453.717,38.4059
2023-10-24T05:36:49,2420,42.8014,5.9826,13.3937,4.60056,2453.717,38.4059
2023-10-24T05:39:49,2420,42.8014,5.9826,13.3862,4.60047,2453.732,38.4124
2023-10-24T05:42:49,2420,42.8014,5.9826,13.3796,4.60054,2453.732,38.4197
2023-10-24T05:45:49,2420,42.8014,5.9826,13.3185,4.60101,2453.717,38.4847
2023-10-24T05:48:49,2420,42.8014,5.9826,13.3590,4.60132,2453.732,38.4474
2023-10-24T05:51:49,2420,42.8014,5.9826,13.3763,4.60090,2453.717,38.4263
2023-10-24T05:54:49,2420,42.8014,5.9826,13.3186,4.60060,2453.732,38.4806
2023-10-24T05:57:49,2420,42.8014,5.9826,13.4117,4.60040,2453.709,38.3866
2023-10-24T06:00:50,2420,42.8014,5.9826,13.3338,4.60057,2453.709,38.4653
2023-10-24T06:03:49,2420,42.8014,5.9826,13.3222,4.60041,2453.754,38.4752
2023-10-24T06:06:49,2420,42.8014,5.9826,13.3385,4.60084,2453.732,38.4632
2023-10-24T06:09:49,2420,42.8014,5.9826,13.2986,4.60195,2453.732,38.5132
2023-10-24T06:12:49,2420,42.8014,5.9826,13.4228,4.60090,2453.732,38.3804
2023-10-24T06:15:49,2420,42.8014,5.9826,13.3531,4.60082,2453.717,38.4485
2023-10-24T06:18:49,2420,42.8014,5.9826,13.3044,4.60099,2453.732,38.4985
2023-10-24T06:21:49,2420,42.8014,5.9826,13.2982,4.60065,2453.717,38.5014
2023-10-24T06:24:49,2420,42.8014,5.9826,13.3016,4.60081,2453.732,38.4994
2023-10-24T06:27:49,2420,42.8014,5.9826,13.2994,4.60114,2453.717,38.5048
2023-10-24T06:30:50,2420,42.8014,5.9826,13.2995,4.60490,2453.717,38.5402
2023-10-24T06:33:49,2420,42.8014,5.9826,13.2984,4.60231,2453.695,38.5168
2023-10-24T06:36:49,2420,42.8014,5.9826,13.2979,4.60760,2453.732,38.5673
2023-10-24T06:39:49,2420,42.8014,5.9826,13.2981,4.60198,2453.695,38.5140
2023-10-24T06:42:49,2420,42.8014,5.9826,13.2987,4.60118,2453.717,38.5058
2023-10-24T06:45:49,2420,42.8014,5.9826,13.3044,4.60071,2453.695,38.4958
2023-10-24T06:48:49,2420,42.8014,5.9826,13.3076,4.60106,2453.717,38.4959
2023-10-24T06:51:49,2420,42.8014,5.9826,13.3267,4.60116,2453.717,38.4779
2023-10-24T06:54:49,2420,42.8014,5.9826,13.3102,4.60112,2453.709,38.4938
2023-10-24T06:57:49,2420,42.8014,5.9826,13.3180,4.60031,2453.695,38.4786
2023-10-24T07:00:49,2420,42.8014,5.9826,13.3289,4.60039,2453.717,38.4684
2023-10-24T07:03:49,2420,42.8014,5.9826,13.3099,4.60036,2453.732,38.4871
2023-10-24T07:06:49,2420,42.8014,5.9826,13.3150,4.60035,2453.717,38.4819
2023-10-24T07:09:49,2420,42.8014,5.9826,13.3109,4.60032,2453.732,38.4856
2023-10-24T07:12:49,2420,42.8014,5.9826,13.3102,4.60030,2453.680,38.4861
2023-10-24T07:15:49,2420,42.8014,5.9826,13.2995,4.60060,2453.695,38.4996
2023-10-24T07:18:49,2420,42.8014,5.9826,13.3232,4.60038,2453.695,38.4740
2023-10-24T07:21:49,2420,42.8014,5.9826,13.3315,4.60049,2453.717,38.4669
2023-10-24T07:24:49,2420,42.8014,5.9826,13.3044,4.60022,2453.740,38.4912
2023-10-24T07:27:49,2420,42.8014,5.9826,13.2993,4.60005,2453.695,38.4946
2023-10-24T07:30:49,2420,42.8014,5.9826,13.2986,4.60003,2453.695,38.4952
2023-10-24T07:33:49,2420,42.8014,5.9826,13.2986,4.59976,2453.695,38.4925
2023-10-24T07:36:49,2420,42.8014,5.9826,13.2986,4.59984,2453.695,38.4933
2023-10-24T07:39:49,2420,42.8014,5.9826,13.2982,4.60023,2453.695,38.4974
2023-10-24T07:42:49,2420,42.8014,5.9826,13.3049,4.59943,2453.695,38.4832
2023-10-24T07:45:49,2420,42.8014,5.9826,13.2983,4.59934,2453.672,38.4889
2023-10-24T07:48:49,2420,42.8014,5.9826,13.2983,4.59930,2453.695,38.4885
2023-10-24T07:51:49,2420,42.8014,5.9826,13.2982,4.59932,2453.717,38.4888
2023-10-24T07:54:49,2420,42.8014,5.9826,13.2980,4.59932,2453.695,38.4890
2023-10-24T07:57:49,2420,42.8014,5.9826,13.2979,4.59930,2453.695,38.4889
2023-10-24T08:00:49,2420,42.8014,5.9826,13.2978,4.59934,2453.695,38.4894
2023-10-24T08:03:49,2420,42.8014,5.9826,13.2978,4.59931,2453.672,38.4891
2023-10-24T08:06:49,2420,42.8014,5.9826,13.2979,4.59931,2453.695,38.4890
2023-10-24T08:09:49,2420,42.8014,5.9826,13.2981,4.59929,2453.740,38.4886
2023-10-24T08:12:49,2420,42.8014,5.9826,13.2979,4.59930,2453.695,38.4889
2023-10-24T08:15:49,2420,42.8014,5.9826,13.2979,4.59928,2453.695,38.4887
2023-10-24T08:18:49,2420,42.8014,5.9826,13.2978,4.59928,2453.672,38.4889
2023-10-24T08:21:49,2420,42.8014,5.9826,13.2980,4.59929,2453.657,38.4888
2023-10-24T08:24:49,2420,42.8014,5.9826,13.2982,4.59928,2453.717,38.4885
2023-10-24T08:27:49,2420,42.8014,5.9826,13.2979,4.59929,2453.695,38.4889
2023-10-24T08:30:49,2420,42.8014,5.9826,13.2982,4.59929,2453.695,38.4886
2023-10-24T08:33:49,2420,42.8014,5.9826,13.2979,4.59928,2453.695,38.4888
2023-10-24T08:36:49,2420,42.8014,5.9826,13.2985,4.59929,2453.695,38.4883
2023-10-24T08:39:49,2420,42.8014,5.9826,13.2979,4.59928,2453.649,38.4888
2023-10-24T08:42:49,2420,42.8014,5.9826,13.2983,4.59928,2453.695,38.4884
2023-10-24T08:45:49,2420,42.8014,5.9826,13.2978,4.59928,2453.672,38.4889
2023-10-24T08:48:49,2420,42.8014,5.9826,13.2978,4.59928,2453.687,38.4889
2023-10-24T08:51:49,2420,42.8014,5.9826,13.2979,4.59928,2453.672,38.4888
2023-10-24T08:54:49,2420,42.8014,5.9826,13.2979,4.59928,2453.717,38.4887
2023-10-24T08:57:49,2420,42.8014,5.9826,13.2978,4.59928,2453.695,38.4889
2023-10-24T09:00:49,2420,42.8014,5.9826,13.2980,4.59928,2453.672,38.4887
2023-10-24T09:03:49,2420,42.8014,5.9826,13.2982,4.59928,2453.695,38.4885
2023-10-24T09:06:49,2420,42.8014,5.9826,13.2979,4.59928,2453.717,38.4887
2023-10-24T09:09:49,2420,42.8014,5.9826,13.2978,4.59928,2453.695,38.4889
2023-10-24T09:12:49,2420,42.8014,5.9826,13.2980,4.59930,2453.657,38.4888
2023-10-24T09:15:49,2420,42.8014,5.9826,13.2978,4.59929,2453.672,38.4889
2023-10-24T09:18:49,2420,42.8014,5.9826,13.2980,4.59930,2453.695,38.4888
2023-10-24T09:21:49,2420,42.8014,5.9826,13.2979,4.59930,2453.695,38.4889
2023-10-24T09:24:50,2420,42.8014,5.9826,13.2979,4.59930,2453.695,38.4889
2023-10-24T09:27:49,2420,42.8014,5.9826,13.2975,4.59929,2453.672,38.4893
2023-10-24T09:30:49,2420,42.8014,5.9826,13.2978,4.59930,2453.649,38.4890
2023-10-24T09:33:49,2420,42.8014,5.9826,13.2981,4.59929,2453.695,38.4887
2023-10-24T09:36:49,2420,42.8014,5.9826,13.2981,4.59929,2453.687,38.4887
2023-10-24T09:39:49,2420,42.8014,5.9826,13.2977,4.59930,2453.695,38.4892
2023-10-24T09:42:49,2420,42.8014,5.9826,13.2980,4.59928,2453.717,38.4886
2023-10-24T09:45:49,2420,42.8014,5.9826,13.2982,4.59928,2453.695,38.4885
2023-10-24T09:48:49,2420,42.8014,5.9826,13.2979,4.59929,2453.695,38.4888
2023-10-24T09:51:49,2420,42.8014,5.9826,13.2978,4.59928,2453.695,38.4889
2023-10-24T09:54:49,2420,42.8014,5.9826,13.2978,4.59928,2453.695,38.4889
2023-10-24T09:57:49,2420,42.8014,5.9826,13.2975,4.59928,2453.649,38.4893
2023-10-24T10:00:50,2420,42.8014,5.9826,13.2976,4.59928,2453.695,38.4890
2023-10-24T10:03:49,2420,42.8014,5.9826,13.2976,4.59929,2453.709,38.4891
2023-10-24T10:06:49,2420,42.8014,5.9826,13.2980,4.59928,2453.672,38.4887
2023-10-24T10:09:49,2420,42.8014,5.9826,13.2977,4.59928,2453.695,38.4890
2023-10-24T10:12:49,2420,42.8014,5.9826,13.2976,4.59928,2453.695,38.4891
2023-10-24T10:15:49,2420,42.8014,5.9826,13.2978,4.59931,2453.672,38.4892
2023-10-24T10:18:49,2420,42.8014,5.9826,13.2982,4.59928,2453.695,38.4885
2023-10-24T10:21:49,2420,42.8014,5.9826,13.2979,4.59928,2453.717,38.4887
2023-10-24T10:24:49,2420,42.8014,5.9826,13.2977,4.59932,2453.695,38.4894
2023-10-24T10:27:50,2420,42.8014,5.9826,13.2982,4.59932,2453.695,38.4889
2023-10-24T10:30:49,2420,42.8014,5.9826,13.2979,4.59935,2453.672,38.4894
2023-10-24T10:33:49,2420,42.8014,5.9826,13.2979,4.59932,2453.702,38.4891
2023-10-24T10:36:49,2420,42.8014,5.9826,13.2978,4.59937,2453.695,38.4897
2023-10-24T10:39:49,2420,42.8014,5.9826,13.2982,4.59933,2453.695,38.4889
2023-10-24T10:42:49,2420,42.8014,5.9826,13.2978,4.59935,2453.717,38.4895
2023-10-24T10:45:49,2420,42.8014,5.9826,13.2981,4.59946,2453.695,38.4903
2023-10-24T10:48:49,2420,42.8014,5.9826,13.2978,4.59933,2453.717,38.4893
2023-10-24T10:51:49,2420,42.8014,5.9826,13.2979,4.59935,2453.695,38.4894
2023-10-24T10:54:49,2420,42.8014,5.9826,13.2982,4.59935,2453.680,38.4891
2023-10-24T10:57:49,2420,42.8014,5.9826,13.2979,4.59937,2453.732,38.4896
2023-10-24T11:00:49,2420,42.8014,5.9826,13.2980,4.59934,2453.717,38.4892
2023-10-24T11:03:49,2420,42.8014,5.9826,13.2983,4.59937,2453.709,38.4891
2023-10-24T11:06:49,2420,42.8014,5.9826,13.2979,4.59937,2453.680,38.4895
2023-10-24T11:09:49,2420,42.8014,5.9826,13.2985,4.59943,2453.695,38.4896
2023-10-24T11:12:49,2420,42.8014,5.9826,13.2987,4.59937,2453.695,38.4888
2023-10-24T11:15:49,2420,42.8014,5.9826,13.2980,4.59935,2453.695,38.4893
2023-10-24T11:18:49,2420,42.8014,5.9826,13.2982,4.59934,2453.717,38.4890
2023-10-24T11:21:49,2420,42.8014,5.9826,13.2986,4.59937,2453.740,38.4889
2023-10-24T11:24:50,2420,42.8014,5.9826,13.2985,4.59938,2453.717,38.4891
2023-10-24T11:27:50,2420,42.8014,5.9826,13.2993,4.59937,2453.695,38.4882
2023-10-24T11:30:49,2420,42.8014,5.9826,13.2979,4.59937,2453.717,38.4896
2023-10-24T11:33:49,2420,42.8014,5.9826,13.2976,4.59940,2453.740,38.4901
2023-10-24T11:36:49,2420,42.8014,5.9826,13.2979,4.59940,2453.680,38.4899
2023-10-24T11:39:49,2420,42.8014,5.9826,13.2987,4.59937,2453.754,38.4887
2023-10-24T11:42:49,2420,42.8014,5.9826,13.2985,4.59939,2453.740,38.4892
2023-10-24T11:45:49,2420,42.8014,5.9826,13.2983,4.59935,2453.740,38.4890
2023-10-24T11:48:49,2420,42.8014,5.9826,13.2986,4.59934,2453.740,38.4887
2023-10-24T11:51:49,2420,42.8014,5.9826,13.2986,4.59933,2453.740,38.4884
2023-10-24T11:54:49,2420,42.8014,5.9826,13.2982,4.59932,2453.740,38.4889
2023-10-24T11:57:49,2420,42.8014,5.9826,13.2983,4.59935,2453.717,38.4890
2023-10-24T12:00:49,2420,42.8014,5.9826,13.2996,4.59938,2453.740,38.4880
2023-10-24T12:03:49,2420,42.8014,5.9826,13.2987,4.59936,2453.717,38.4887
2023-10-24T12:06:49,2420,42.8014,5.9826,13.2982,4.59939,2453.762,38.4895
2023-10-24T12:09:49,2420,42.8014,5.9826,13.2982,4.59934,2453.740,38.4890
2023-10-24T12:12:49,2420,42.8014,5.9826,13.2982,4.59935,2453.740,38.4892
2023-10-24T12:15:49,2420,42.8014,5.9826,13.2980,4.59939,2453.732,38.4896
2023-10-24T12:18:49,2420,42.8014,5.9826,13.2987,4.59934,2453.754,38.4884
2023-10-24T12:21:49,2420,42.8014,5.9826,13.2979,4.59934,2453.725,38.4892
2023-10-24T12:24:49,2420,42.8014,5.9826,13.2985,4.59936,2453.740,38.4889
2023-10-24T12:27:49,2420,42.8014,5.9826,13.2985,4.59937,2453.762,38.4890
2023-10-24T12:30:49,2420,42.8014,5.9826,13.2980,4.59935,2453.740,38.4893
2023-10-24T12:33:49,2420,42.8014,5.9826,13.2986,4.59931,2453.762,38.4884
2023-10-24T12:36:49,2420,42.8014,5.9826,13.2979,4.59937,2453.762,38.4896
2023-10-24T12:39:49,2420,42.8014,5.9826,13.2985,4.59934,2453.725,38.4887
2023-10-24T12:42:49,2420,42.8014,5.9826,13.2988,4.59935,2453.762,38.4885
2023-10-24T12:45:49,2420,42.8014,5.9826,13.2981,4.59930,2453.762,38.4887
2023-10-24T12:48:49,2420,42.8014,5.9826,13.2986,4.59941,2453.785,38.4892
2023-10-24T12:51:49,2420,42.8014,5.9826,13.2985,4.59943,2453.777,38.4896
2023-10-24T12:54:49,2420,42.8014,5.9826,13.2982,4.59933,2453.785,38.4889
2023-10-24T12:57:49,2420,42.8014,5.9826,13.2979,4.59940,2453.762,38.4898
2023-10-24T13:00:49,2420,42.8014,5.9826,13.2979,4.59942,2453.762,38.4900
2023-10-24T13:03:49,2420,42.8014,5.9826,13.2982,4.59934,2453.793,38.4890
2023-10-24T13:06:49,2420,42.8014,5.9826,13.2986,4.59937,2453.762,38.4888
2023-10-24T13:09:49,2420,42.8014,5.9826,13.2981,4.59947,2453.785,38.4903
2023-10-24T13:12:49,2420,42.8014,5.9826,13.2981,4.59937,2453.725,38.4894
2023-10-24T13:15:49,2420,42.8014,5.9826,13.2980,4.59934,2453.785,38.4892
2023-10-24T13:18:49,2420,42.8014,5.9826,13.2979,4.59940,2453.762,38.4898
2023-10-24T13:21:49,2420,42.8014,5.9826,13.2982,4.59949,2453.740,38.4904
2023-10-24T13:24:49,2420,42.8014,5.9826,13.2986,4.59936,2453.785,38.4888
2023-10-24T13:27:49,2420,42.8014,5.9826,13.2985,4.59945,2453.762,38.4897
2023-10-24T13:30:50,2420,42.8014,5.9826,13.2984,4.59933,2453.785,38.4887
2023-10-24T13:33:49,2420,42.8014,5.9826,13.2982,4.59934,2453.785,38.4891
2023-10-24T13:36:49,2420,42.8014,5.9826,13.2985,4.59939,2453.800,38.4892
2023-10-24T13:39:49,2420,42.8014,5.9826,13.2981,4.59940,2453.800,38.4897
2023-10-24T13:42:49,2420,42.8014,5.9826,13.2980,4.59932,2453.762,38.4890
2023-10-24T13:45:49,2420,42.8014,5.9826,13.2984,4.59947,2453.822,38.4900
2023-10-24T13:48:49,2420,42.8014,5.9826,13.2986,4.59934,2453.762,38.4886
2023-10-24T13:51:49,2420,42.8014,5.9826,13.2982,4.59934,2453.807,38.4890
2023-10-24T13:54:49,2420,42.8014,5.9826,13.2991,4.59946,2453.822,38.4891
2023-10-24T13:57:49,2420,42.8014,5.9826,13.2985,4.59943,2453.785,38.4895
2023-10-24T14:00:49,2420,42.8014,5.9826,13.2986,4.59940,2453.785,38.4891
2023-10-24T14:03:49,2420,42.8014,5.9826,13.2988,4.59936,2453.822,38.4885
2023-10-24T14:06:49,2420,42.8014,5.9826,13.2985,4.59939,2453.785,38.4892
2023-10-24T14:09:49,2420,42.8014,5.9826,13.2986,4.59942,2453.807,38.4893
2023-10-24T14:12:49,2420,42.8014,5.9826,13.2982,4.59952,2453.793,38.4907
2023-10-24T14:15:49,2420,42.8014,5.9826,13.2990,4.59944,2453.807,38.4891
2023-10-24T14:18:49,2420,42.8014,5.9826,13.2994,4.59948,2453.830,38.4891
2023-10-24T14:21:49,2420,42.8014,5.9826,13.3031,4.60000,2453.807,38.4903
2023-10-24T14:24:49,2420,42.8014,5.9826,13.3026,4.59990,2453.807,38.4899
2023-10-24T14:27:49,2420,42.8014,5.9826,13.3082,4.59949,2453.853,38.4805
2023-10-24T14:30:49,2420,42.8014,5.9826,13.3029,4.59978,2453.822,38.4885
2023-10-24T14:33:49,2420,42.8014,5.9826,13.3010,4.59972,2453.807,38.4898
2023-10-24T14:36:49,2420,42.8014,5.9826,13.3064,4.60028,2453.830,38.4897
2023-10-24T14:39:49,2420,42.8014,5.9826,13.3145,4.60008,2453.807,38.4798
2023-10-24T14:42:49,2420,42.8014,5.9826,13.3046,4.60061,2453.830,38.4946
2023-10-24T14:45:49,2420,42.8014,5.9826,13.3062,4.60084,2453.830,38.4952
2023-10-24T14:48:49,2420,42.8014,5.9826,13.3035,4.60005,2453.807,38.4904
2023-10-24T14:51:49,2420,42.8014,5.9826,13.3061,4.60001,2453.830,38.4874
2023-10-24T14:54:50,2420,42.8014,5.9826,13.3029,4.59989,2453.830,38.4895
2023-10-24T14:57:49,2420,42.8014,5.9826,13.3022,4.60008,2453.845,38.4919
2023-10-24T15:00:49,2420,42.8014,5.9826,13.3024,4.60017,2453.830,38.4926
2023-10-24T15:03:49,2420,42.8014,5.9826,13.3030,4.59982,2453.822,38.4887
2023-10-24T15:06:49,2420,42.8014,5.9826,13.3036,4.59967,2453.853,38.4867
2023-10-24T15:09:49,2420,42.8014,5.9826,13.3058,4.60029,2453.830,38.4904
2023-10-24T15:12:49,2420,42.8014,5.9826,13.3039,4.59966,2453.830,38.4864
2023-10-24T15:15:49,2420,42.8014,5.9826,13.3064,4.59996,2453.867,38.4867
2023-10-24T15:18:49,2420,42.8014,5.9826,13.3006,4.59951,2453.830,38.4882
2023-10-24T15:21:49,2420,42.8014,5.9826,13.3008,4.59955,2453.822,38.4884
2023-10-24T15:24:49,2420,42.8014,5.9826,13.3001,4.60006,2453.845,38.4938
2023-10-24T15:27:49,2420,42.8014,5.9826,13.3044,4.59992,2453.830,38.4883
2023-10-24T15:30:49,2420,42.8014,5.9826,13.3025,4.59957,2453.830,38.4868
2023-10-24T15:33:49,2420,42.8014,5.9826,13.3043,4.59948,2453.875,38.4842
2023-10-24T15:36:49,2420,42.8014,5.9826,13.2994,4.59959,2453.838,38.4901
2023-10-24T15:39:49,2420,42.8014,5.9826,13.3036,4.59980,2453.830,38.4879
2023-10-24T15:42:49,2420,42.8014,5.9826,13.3027,4.59962,2453.830,38.4871
2023-10-24T15:45:49,2420,42.8014,5.9826,13.2989,4.59961,2453.853,38.4908
2023-10-24T15:48:49,2420,42.8014,5.9826,13.3051,4.59955,2453.875,38.4840
2023-10-24T15:51:49,2420,42.8014,5.9826,13.3289,4.59959,2453.853,38.4609
2023-10-24T15:54:49,2420,42.8014,5.9826,13.3003,4.59955,2453.867,38.4888
2023-10-24T15:57:49,2420,42.8014,5.9826,13.3022,4.59959,2453.830,38.4874
2023-10-24T16:00:50,2420,42.8014,5.9826,13.3039,4.59976,2453.830,38.4873
2023-10-24T16:03:49,2420,42.8014,5.9826,13.3123,4.59967,2453.853,38.4781